Concord, NH

10:31 PM EDT on April 28, 2017 (GMT -0400)
Concord Municipal

Weather History for KCON - January, 2013

Change the Weather History Date:

Wednesday, January 23, 2013

  Actual Average Record
Temperature  
Mean Temperature 2 °F 20 °F  
Max Temperature 9 °F 31 °F 64 °F (1906)
Min Temperature -5 °F 10 °F -20 °F (1970)
Degree Days  
Heating Degree Days 63 45  
Month to date heating degree days 943 1025  
Since 1 July heating degree days 3463 3771  
Cooling Degree Days 0 0  
Month to date cooling degree days 0 0  
Year to date cooling degree days 0 0  
Moisture  
Dew Point -11 °F    
Average Humidity 60    
Maximum Humidity 87    
Minimum Humidity 32    
Precipitation  
Precipitation T in 0.09 in 1.06 in (1966)
Month to date precipitation 0.56 2.01  
Year to date precipitation 0.56 2.01  
Snow  
Snow T in 0.60 in 13.00 in (1966)
Month to date snowfall 4.7 13.6  
Since 1 July snowfall 19.1 30.7  
Snow Depth 3.00 in    
Sea Level Pressure  
Sea Level Pressure 30.10 in    
Wind  
Wind Speed 9 mph (NW)    
Max Wind Speed 21 mph    
Max Gust Speed 29 mph    
Visibility 10 miles    
Events      
T = Trace of Precipitation, MM = Missing Value Source: NWS Daily Summary

Daily Weather History Graph

Daily Weather History Graph

Search for Another Location

Airport or City:

Trip Planner

Search our weather history database for the weather conditions in past years. The results will help you decide how hot, cold, wet, or windy it might be!

Date:

Astronomy

Jan. 23, 2013 Rise Set
Actual Time 7:09 AM EST 4:46 PM EST
Civil Twilight 6:38 AM EST 5:17 PM EST
Nautical Twilight 6:04 AM EST 5:52 PM EST
Astronomical Twilight 5:30 AM EST 6:25 PM EST
Moon 1:53 PM EST (1/23) 4:20 AM EST (1/23)
Length of Visible Light 10h 38m
Length of Day
9h 36m
Waxing Gibbous, 89% of the Moon is Illuminated
Jan 23
Waxing Gibbous
Jan 26
Full
Feb 3
Last Quarter
Feb 10
New
Feb 17
First Quarter

Hourly Weather History & Observations

Time (EST) Temp. Windchill Dew Point Humidity Pressure Visibility Wind Dir Wind Speed Gust Speed Precip Events Conditions
12:51 AM 1.9 °F - -2.9 °F 80% 30.05 in 10.0 mi Calm Calm - N/A   Mostly Cloudy
1:51 AM 1.0 °F - -2.0 °F 87% 30.05 in 10.0 mi Calm Calm - N/A   Overcast
2:51 AM 7.0 °F -9.1 °F -0.9 °F 70% 30.04 in 8.0 mi West 12.7 mph 19.6 mph 0.00 in   Mostly Cloudy
3:51 AM 7.0 °F -12.6 °F -9.9 °F 46% 30.05 in 10.0 mi West 19.6 mph 27.6 mph N/A   Overcast
4:51 AM 3.9 °F -12.2 °F -7.1 °F 60% 30.07 in 10.0 mi NNW 11.5 mph - N/A   Overcast
5:51 AM 1.0 °F -14.0 °F -7.1 °F 69% 30.10 in 10.0 mi NNW 9.2 mph - N/A   Partly Cloudy
6:51 AM -0.9 °F -14.1 °F -9.0 °F 69% 30.11 in 10.0 mi North 6.9 mph - N/A   Clear
7:51 AM -0.9 °F -14.1 °F -9.9 °F 66% 30.13 in 10.0 mi NNW 6.9 mph - N/A   Clear
8:51 AM 1.0 °F -14.9 °F -9.9 °F 60% 30.14 in 10.0 mi North 10.4 mph - N/A   Clear
9:51 AM 3.0 °F -9.3 °F -9.9 °F 55% 30.15 in 10.0 mi NNW 6.9 mph - N/A   Clear
10:51 AM 5.0 °F -10.0 °F -11.0 °F 48% 30.13 in 10.0 mi NNW 10.4 mph - N/A   Partly Cloudy
11:51 AM 7.0 °F -9.1 °F -11.0 °F 44% 30.11 in 10.0 mi NNW 12.7 mph 17.3 mph N/A   Clear
12:51 PM 8.6 °F -4.7 °F -11.2 °F 40% 30.06 in 10.0 mi NNW 9.2 mph - N/A   Clear
1:51 PM 8.1 °F -9.0 °F -13.0 °F 38% 30.08 in 10.0 mi NNW 15.0 mph - N/A   Clear
2:51 PM 9.0 °F -6.6 °F -13.0 °F 36% 30.09 in 10.0 mi NNW 12.7 mph - N/A   Clear
3:51 PM 8.1 °F -8.4 °F -17.0 °F 31% 30.09 in 10.0 mi WNW 13.8 mph 27.6 mph N/A   Clear
4:51 PM 6.1 °F -10.2 °F -17.0 °F 34% 30.11 in 10.0 mi WNW 12.7 mph - N/A   Clear
5:51 PM 3.9 °F -10.4 °F -16.1 °F 39% 30.12 in 10.0 mi NW 9.2 mph - N/A   Clear
6:51 PM 3.0 °F -6.4 °F -16.1 °F 41% 30.13 in 10.0 mi NNW 4.6 mph - N/A   Clear
7:51 PM 1.9 °F -11.8 °F -15.0 °F 45% 30.13 in 10.0 mi NW 8.1 mph - N/A   Clear
8:51 PM -0.4 °F -14.7 °F -14.8 °F 51% 30.10 in 10.0 mi NW 8.1 mph - N/A   Clear
9:51 PM -0.9 °F -8.9 °F -14.1 °F 54% 30.14 in 10.0 mi NW 3.5 mph - N/A   Clear
10:51 PM -0.9 °F -15.3 °F -15.0 °F 52% 30.13 in 10.0 mi WNW 8.1 mph - N/A   Clear
11:51 PM -4.0 °F - -15.0 °F 59% 30.13 in 10.0 mi Calm Calm - N/A   Clear